Seattle Boeing, WA
on Sunday, February 3, 2013

Sunday
Previous Day Next Day
Daily Summary
 ActualAverage (KSEA)Record (KSEA)
Temperature
Mean Temperature °F 43°F  
Max Temperature 50°F 49°F 63°F (1992)
Min Temperature 39°F 37°F 8°F (1950)
Degree Days
Heating Degree Days 20 22  
Month to date heating degree days 66  
Since 1 July heating degree days 2715  
Cooling Degree Days 0 0  
Month to date cooling degree days 0  
Year to date cooling degree days 0  
Moisture
Dew Point 39°F   
Average Humidity 84    
Maximum Humidity 93    
Minimum Humidity 71    
Precipitation
Precipitation 0.08 in 0.14 in 1.29 in (1968)
Month to date precipitation 0.40  
Year to date precipitation 5.97  
Snow
Snow 0.00 in in 1.30 in (1949)
Month to date snowfall  
Since 1 July snowfall  
Snow Depth in   
Wind
Wind Speed 7 mph   
Max Wind Speed 10 mph   
Max Gust Speed mph   
Visibility 8 miles   
Events Rain   

Key: T is trace of precipitation, MM is missing value
Source: NWS Daily Summary
Time(PST)TemperatureDew PointHumidity Pressure Visibility Wind DirectionWind SpeedGust SpeedPrecipitationEvents Conditions
12:53 AM 39.0°F 36.0°F 89% 30.29 in 0.8 miles SE 9.2 mph - N/A   Mist
1:00 AM 39.2°F 37.4°F 93% 30.30 in 1.0 miles SE 6.9 mph - N/A   Mist
1:14 AM 39.2°F 37.4°F 93% 30.30 in 3.0 miles SSE 5.8 mph - N/A   Overcast
1:53 AM 39.0°F 36.0°F 89% 30.28 in 6.0 miles SSE 8.1 mph - N/A   Overcast
2:41 AM 39.2°F 35.6°F 87% 30.29 in 9.0 miles SSE 4.6 mph - N/A   Overcast
2:53 AM 39.9°F 36.0°F 86% 30.28 in 9.0 miles SSE 6.9 mph - N/A   Overcast
3:53 AM 39.9°F 36.0°F 86% 30.26 in 10.0 miles SE 9.2 mph - N/A   Overcast
4:53 AM 41.0°F 37.0°F 86% 30.29 in 10.0 miles SE 6.9 mph - N/A   Overcast
5:11 AM 41.0°F 37.4°F 87% 30.29 in 10.0 miles SSE 8.1 mph - N/A   Overcast
5:53 AM 39.9°F 36.0°F 86% 30.27 in 10.0 miles SE 8.1 mph - N/A   Overcast
6:21 AM 39.2°F 35.6°F 87% 30.30 in 10.0 miles SE 5.8 mph - N/A   Overcast
6:53 AM 39.9°F 37.0°F 89% 30.29 in 4.0 miles SE 5.8 mph - 0.00 in   Overcast
7:53 AM 42.1°F 39.0°F 89% 30.30 in 4.0 miles SE 5.8 mph - 0.01 in   Overcast
8:14 AM 42.8°F 39.2°F 87% 30.30 in 5.0 miles SE 5.8 mph - N/A   Overcast
8:53 AM 44.1°F 39.9°F 85% 30.30 in 8.0 miles SSE 8.1 mph - N/A   Overcast
9:53 AM 44.1°F 39.9°F 85% 30.30 in 10.0 miles SE 10.4 mph - N/A   Overcast
10:25 AM 44.6°F 41.0°F 87% 30.30 in 10.0 miles SE 9.2 mph - N/A   Overcast
10:53 AM 45.0°F 39.9°F 82% 30.30 in 10.0 miles SE 9.2 mph - N/A   Overcast
11:22 AM 46.4°F 39.2°F 76% 30.30 in 10.0 miles SE 9.2 mph - N/A   Overcast
11:53 AM 46.9°F 41.0°F 80% 30.29 in 10.0 miles SE 6.9 mph - N/A   Overcast
12:53 PM 48.0°F 41.0°F 77% 30.28 in 10.0 miles SSE 4.6 mph - N/A   Overcast
1:53 PM 48.9°F 41.0°F 74% 30.26 in 10.0 miles SE 8.1 mph - N/A   Overcast
2:53 PM 50.0°F 41.0°F 71% 30.25 in 10.0 miles SSE 8.1 mph - N/A   Overcast
3:53 PM 48.9°F 41.0°F 74% 30.25 in 10.0 miles South 8.1 mph - N/A   Overcast
4:53 PM 48.0°F 41.0°F 77% 30.25 in 10.0 miles SSE 4.6 mph - N/A   Overcast
5:53 PM 46.9°F 42.1°F 83% 30.25 in 8.0 miles SSE 6.9 mph - 0.01 in Rain Light Rain
6:53 PM 46.0°F 43.0°F 89% 30.24 in 5.0 miles SE 6.9 mph - 0.03 in Rain Light Rain
7:53 PM 46.9°F 43.0°F 86% 30.22 in 8.0 miles SSE 6.9 mph - 0.02 in Rain Light Rain
8:53 PM 46.0°F 42.1°F 86% 30.22 in 6.0 miles Variable 3.5 mph - 0.00 in   Overcast
9:53 PM 46.9°F 42.1°F 83% 30.23 in 10.0 miles Variable 3.5 mph - N/A   Overcast
10:53 PM 46.9°F 42.1°F 83% 30.22 in 10.0 miles Calm Calm - 0.01 in   Overcast
11:17 PM 46.4°F 41.0°F 81% 30.23 in 10.0 miles South 3.5 mph - N/A   Overcast
11:38 PM 46.4°F 41.0°F 81% 30.21 in 10.0 miles SE 4.6 mph - N/A   Overcast
11:53 PM 46.0°F 41.0°F 83% 30.22 in 10.0 miles SSE 4.6 mph - N/A   Overcast
Moon Phase
Feb. 03 Feb. 10 Feb. 17 Feb. 25 Mar. 04
Sunrise:07:32 AM (PST) Moon Rise:01:07 AM (PST)2/3
Sunset:05:14 PM (PST) Moon Set:10:52 AM (PST)2/3

Copyright © 2014 The Weather Underground, Inc.